Regional Weather Roundup
Issued by NWS

Home | Current Version | Previous Version | Text Only | Print | Product List | Glossary Off
Versions: 1 2 3 4 5 6 7 8 9 10 11 12 13 14 15 16 17 18 19 20 21 22 23 24 25 26 27 28 29 30 31 32 33 34 35 36 37 38 39 40 41 42 43 44 45 46 47 48 49 50

083
ASUS43 KOAX 310610
RWRNE

WEATHER ROUNDUP FOR NEBRASKA
NATIONAL WEATHER SERVICE OMAHA NE
100 AM CDT SUN JUL 31 2016

NOTES: SATELLITE DATA IS BEING USED TO AUGMENT CLOUD COVER ABOVE
       12000 FEET.
       "FAIR" INDICATES FEW OR NO CLOUDS BELOW 12,000 FEET WITH NO
       SIGNIFICANT WEATHER AND/OR OBSTRUCTIONS TO VISIBILITY.

  * THESE STATIONS DO NOT REPORT WEATHER SUCH AS RAIN...SNOW OR FOG.

NEZ001>004-019>022-054>056-310700-
NEBRASKA PANHANDLE

CITY           SKY/WX    TMP DP  RH WIND       PRES   REMARKS
SCOTTSBLUFF    CLOUDY    69  62  78 E10       29.88F
6HR MIN TEMP:  69; 6HR MAX TEMP:  88;

ALLIANCE       CLEAR     67  63  87 SE10      29.90F
6HR MIN TEMP:  66; 6HR MAX TEMP:  84;

CHADRON        MOCLDY    64  59  83 E5        29.89R
6HR MIN TEMP:  64; 6HR MAX TEMP:  90; 6HR PCP:  0.09;

KIMBALL        CLOUDY    71  61  70 SE9       29.96R
SIDNEY         CLOUDY    71  62  73 S12       29.96F
6HR MIN TEMP:  70; 6HR MAX TEMP:  86;

$$

NEZ057>060-069>072-079>082-310700-
SOUTHWEST NEBRASKA

CITY           SKY/WX    TMP DP  RH WIND       PRES   REMARKS
NORTH PLATTE   CLEAR     72  67  84 SE9       29.91F
6HR MIN TEMP:  71; 6HR MAX TEMP:  84;

IMPERIAL       CLEAR     73  65  75 SE12      29.90F
6HR MIN TEMP:  72; 6HR MAX TEMP:  88;

LEXINGTON      CLEAR     71  68  90 SE9       29.92F
MCCOOK         PTCLDY    74  67  78 E10       29.89F
6HR MIN TEMP:  74; 6HR MAX TEMP:  89;

OGALLALA       CLEAR     75  64  69 S12G17    29.91S
$$

NEZ005>010-023>029-035>040-094-310700-
NORTH CENTRAL NEBRASKA

CITY           SKY/WX    TMP DP  RH WIND       PRES   REMARKS
VALENTINE      MOCLDY    74  67  78 SW9       29.91R
6HR MIN TEMP:  74; 6HR MAX TEMP:  84; 6HR PCP: TRACE;

AINSWORTH      MOCLDY    72  71  96 SE14      29.90F
BROKEN BOW     CLEAR     70  68  93 SE9       29.94S
6HR MIN TEMP:  70; 6HR MAX TEMP:  82;

O`NEILL        PTCLDY    71  68  91 SE12      29.92F
ORD            CLOUDY    70  65  84 SE5       29.93R
6HR MIN TEMP:  70; 6HR MAX TEMP:  82;

THEDFORD       PTCLDY    73  68  85 S18       29.92F
$$

NEZ041-046>049-061>064-073>077-083>087-310700-
SOUTH CENTRAL NEBRASKA

CITY           SKY/WX    TMP DP  RH WIND       PRES   REMARKS
GRAND ISLAND   CLOUDY    70  67  90 SE9       29.94F
6HR MIN TEMP:  70; 6HR MAX TEMP:  80;

AURORA         PTCLDY    68  68  98 SE7       29.95S
HASTINGS       CLEAR     70  67  90 SE10      29.93F
6HR MIN TEMP:  70; 6HR MAX TEMP:  80;

HEBRON         CLEAR     71  67  87 SE9       29.93F
HOLDREGE       CLEAR     70  67  91 SE10      29.93S
KEARNEY *      CLEAR     70  66  88 SE9       29.94S
YORK           CLOUDY    68  66  94 SE8       29.95S
$$

NEZ011>018-030>034-042>045-310700-
NORTHEAST NEBRASKA

CITY           SKY/WX    TMP DP  RH WIND       PRES   REMARKS
NORFOLK        CLEAR     68  64  87 E6        29.95S
6HR MIN TEMP:  68; 6HR MAX TEMP:  78;

ALBION         PTCLDY    69  65  89 SE7       29.95F
BLAIR          PTCLDY    71  65  81 SE7       29.96F
FREMONT        PTCLDY    71  65  80 SE8       29.96F
TEKAMAH        PTCLDY    67  64  90 SE3       29.96S
6HR MIN TEMP:  66; 6HR MAX TEMP:  81;

WAYNE          CLOUDY    67  65  93 S3        29.97S
$$

NEZ050>053-065>068-078-088>093-310700-
SOUTHEAST NEBRASKA

CITY           SKY/WX    TMP DP  RH WIND       PRES   REMARKS
LINCOLN        MOCLDY    74  68  81 SE10      29.95F
6HR MIN TEMP:  73; 6HR MAX TEMP:  80;

OMAHA EPPLEY   PTCLDY    72  64  76 SE7       29.96F
6HR MIN TEMP:  72; 6HR MAX TEMP:  82;

BEATRICE       CLEAR     71  67  87 SE6       29.95F
FALLS CITY     PTCLDY    69  67  93 SE5       29.97S
6HR MIN TEMP:  68; 6HR MAX TEMP:  80;

NEBRASKA CITY  CLEAR     69  68  98 SE7       29.97F
PLATTSMOUTH    MOCLDY    70  66  88 SE7       29.97F
$$

NEZ044-045-051>053-067-310700-
OMAHA AREA

CITY           SKY/WX    TMP DP  RH WIND       PRES   REMARKS
OMAHA EPPLEY   PTCLDY    72  64  76 SE7       29.96F
6HR MIN TEMP:  72; 6HR MAX TEMP:  82;

BLAIR          PTCLDY    71  65  81 SE7       29.96F
FREMONT        PTCLDY    71  65  80 SE8       29.96F
MILLARD        MOCLDY    71  66  85 SE6       29.96S
OFFUTT AFB     PTCLDY    70  66  89 E6        29.96F
PLATTSMOUTH    MOCLDY    70  66  88 SE7       29.97F
WAHOO          CLOUDY    69  67  93 SE5       29.96F
$$




USA.gov is the U.S. government's official web portal to all federal, state and local government web resources and services.